Madison, WI

11:19 AM CDT on March 25, 2017 (GMT -0500)
Dane County Regional-Truax

Weather History for KMSN - March, 2013

Change the Weather History Date:

Tuesday, March 19, 2013

  Actual Average Record
Temperature  
Mean Temperature 21 °F 35 °F  
Max Temperature 30 °F 44 °F 76 °F (1976)
Min Temperature 11 °F 26 °F -8 °F (1923)
Degree Days  
Heating Degree Days 44 30  
Month to date heating degree days 764 636  
Since 1 July heating degree days 5922 6122  
Cooling Degree Days 0 0  
Month to date cooling degree days 0 0  
Year to date cooling degree days 0 0  
Moisture  
Dew Point 7 °F    
Average Humidity 55    
Maximum Humidity 73    
Minimum Humidity 36    
Precipitation  
Precipitation T in 0.07 in 1.09 in (1897)
Month to date precipitation 2.36 1.19  
Year to date precipitation 7.64 3.87  
Snow  
Snow T in 0.20 in 4.10 in (1970)
Month to date snowfall 11.8 4.9  
Since 1 July snowfall 66.9 46.0  
Snow Depth 8.00 in    
Sea Level Pressure  
Sea Level Pressure 29.92 in    
Wind  
Wind Speed 11 mph (West)    
Max Wind Speed 20 mph    
Max Gust Speed 30 mph    
Visibility 9 miles    
Events Snow    
T = Trace of Precipitation, MM = Missing Value Source: NWS Daily Summary

Daily Weather History Graph

Daily Weather History Graph

Search for Another Location

Airport or City:

Trip Planner

Search our weather history database for the weather conditions in past years. The results will help you decide how hot, cold, wet, or windy it might be!

Date:

Astronomy

Mar. 19, 2013 Rise Set
Actual Time 7:01 AM CDT 7:08 PM CDT
Civil Twilight 6:33 AM CDT 7:37 PM CDT
Nautical Twilight 6:00 AM CDT 8:10 PM CDT
Astronomical Twilight 5:26 AM CDT 8:44 PM CDT
Moon 11:43 AM CDT (3/19) 2:04 AM CDT (3/19)
Length of Visible Light 13h 03m
Length of Day
12h 06m
Waxing Crescent, 50% of the Moon is Illuminated
Mar 19
Waxing Crescent
Mar 19
First Quarter
Mar 27
Full
Apr 2
Last Quarter
Apr 10
New

Hourly Weather History & Observations

Time (CDT) Temp. Windchill Dew Point Humidity Pressure Visibility Wind Dir Wind Speed Gust Speed Precip Events Conditions
12:53 AM 17.1 °F 3.6 °F 9.0 °F 71% 29.76 in 6.0 mi West 12.7 mph 24.2 mph 0.00 in Snow Light Snow
1:53 AM 16.0 °F 2.3 °F 10.0 °F 77% 29.76 in 2.5 mi West 12.7 mph 20.7 mph 0.00 in Snow Light Snow
2:00 AM 15.8 °F 4.2 °F 8.6 °F 73% 29.72 in 5.0 mi West 9.2 mph 21.9 mph 0.00 in Snow Light Snow
2:53 AM 15.1 °F 4.2 °F 7.0 °F 70% 29.77 in 10.0 mi West 8.1 mph 20.7 mph 0.00 in   Overcast
3:53 AM 14.0 °F 2.0 °F 7.0 °F 74% 29.78 in 10.0 mi West 9.2 mph - 0.00 in   Overcast
4:53 AM 14.0 °F 2.0 °F 6.1 °F 71% 29.79 in 10.0 mi West 9.2 mph 20.7 mph N/A   Overcast
5:53 AM 12.9 °F -1.6 °F 5.0 °F 71% 29.82 in 10.0 mi West 12.7 mph 24.2 mph N/A   Overcast
6:53 AM 12.0 °F -1.3 °F 5.0 °F 73% 29.84 in 10.0 mi West 10.4 mph 20.7 mph N/A   Overcast
7:53 AM 12.0 °F -2.7 °F 5.0 °F 73% 29.86 in 10.0 mi West 12.7 mph 21.9 mph N/A   Mostly Cloudy
8:11 AM 12.2 °F -1.8 °F 5.0 °F 73% 29.81 in 10.0 mi West 11.5 mph 18.4 mph N/A   Mostly Cloudy
8:53 AM 12.9 °F -0.9 °F 5.0 °F 71% 29.88 in 10.0 mi West 11.5 mph 24.2 mph N/A   Partly Cloudy
9:53 AM 16.0 °F 3.6 °F 6.1 °F 65% 29.91 in 10.0 mi West 10.4 mph 24.2 mph N/A   Clear
10:53 AM 18.0 °F 4.2 °F 6.1 °F 60% 29.92 in 10.0 mi West 13.8 mph 25.3 mph N/A   Clear
11:53 AM 21.0 °F 8.6 °F 7.0 °F 55% 29.95 in 10.0 mi West 12.7 mph 21.9 mph N/A   Clear
12:53 PM 24.1 °F 12.0 °F 7.0 °F 48% 29.96 in 10.0 mi West 13.8 mph 25.3 mph N/A   Clear
1:53 PM 26.1 °F 14.0 °F 7.0 °F 44% 29.97 in 10.0 mi WNW 15.0 mph 26.5 mph N/A   Clear
2:53 PM 28.0 °F 17.5 °F 8.1 °F 43% 29.97 in 10.0 mi West 12.7 mph 21.9 mph N/A   Clear
3:53 PM 28.9 °F 19.8 °F 9.0 °F 43% 29.98 in 10.0 mi West 10.4 mph 25.3 mph N/A   Clear
4:53 PM 30.0 °F 21.7 °F 7.0 °F 38% 30.01 in 10.0 mi West 9.2 mph 24.2 mph N/A   Clear
5:53 PM 28.9 °F 19.8 °F 6.1 °F 38% 30.02 in 10.0 mi West 10.4 mph 26.5 mph N/A   Clear
6:53 PM 27.0 °F 19.5 °F 6.1 °F 41% 30.04 in 10.0 mi Variable 6.9 mph 23.0 mph N/A   Partly Cloudy
7:53 PM 25.0 °F 14.2 °F 7.0 °F 46% 30.06 in 10.0 mi West 11.5 mph 18.4 mph N/A   Clear
8:53 PM 23.0 °F 12.4 °F 8.1 °F 53% 30.07 in 10.0 mi West 10.4 mph 17.3 mph N/A   Clear
9:53 PM 21.9 °F 8.7 °F 7.0 °F 53% 30.08 in 10.0 mi WNW 15.0 mph 20.7 mph N/A   Clear
10:53 PM 19.9 °F 10.1 °F 7.0 °F 57% 30.08 in 10.0 mi West 8.1 mph 16.1 mph N/A   Clear
11:53 PM 19.0 °F 6.8 °F 5.0 °F 54% 30.09 in 10.0 mi WNW 11.5 mph 18.4 mph N/A   Clear